Location: LDNL
(36.4545°S, 141.6685°E)
Time: 18:44:24
(UTC+10:00)

A-11 Canister half - Pass Details

Date: 31 January 2022
Orbit: 1527 x 1682 km, 47.3° (Epoch: 20 May)

Event Time Altitude Azimuth Distance (km) Brightness Sun altitude
Rises 21:49:41 0° 325° (NW) 4,907 11.7 -12.4°
Reaches altitude 10° 21:52:54 10° 328° (NNW) 3,932 11.1 -13.0°
Maximum altitude 22:02:44 58° 44° (NE) 1,919 9.2 -14.6°
Drops below altitude 10° 22:12:34 10° 119° (ESE) 3,934 10.9 -16.2°
Sets 22:15:46 0° 122° (ESE) 4,910 11.4 -16.7°
